Orbital Elements at Epoch 2459200.5 (2020-Dec-17.0) TDB
Reference: JPL 14 (heliocentric ecliptic J2000)
Element | Value | Uncertainty (1-sigma) | Units |
e | .1891026464263234 | 6.6478e-08 | |
a | 2.324023820211842 | 1.8737e-08 | au |
q | 1.884544765451968 | 1.5789e-07 | au |
i | 1.424751141561581 | 6.0212e-06 | deg |
node | 261.1999098834888 | 0.00035803 | deg |
peri | 21.01999810047085 | 0.00035893 | deg |
M | 143.4987638758824 | 3.1455e-05 | deg |
tp | 2458684.671957204653 (2019-Jul-20.17195720) | 0.00010891 | TDB |
period | 1294.074529916802 3.54 | 1.565e-05 4.285e-08 | d yr |
n | .2781910868944657 | 3.3643e-09 | deg/d |
Q | 2.763502874971715 | 2.228e-08 | au |
|
| | Orbit Determination Parameters
Additional Information
|